Regional Weather Roundup
Issued by NWS Lake Charles, LA

Current Version | Previous Version | Text Only | Print | Product List | Glossary On
Versions: 1 2 3 4 5 6 7 8 9 10 11 12 13 14 15 16 17 18 19 20 21 22 23 24 25 26 27
000
ASUS44 KLCH 040710
RWRLCH
REGIONAL WEATHER ROUNDUP
NATIONAL WEATHER SERVICE LAKE CHARLES LA
200 AM CDT TUE OCT 04 2022

Note: "fair" indicates few or no clouds below 12,000 feet with no
significant weather and/or obstructions to visibility.


ACROSS SOUTHEAST TEXAS

CITY           SKY/WX    TMP DP  RH WIND       PRES   REMARKS
BEAUMONT       PTCLDY    65  56  72 NE5       30.06S
BEAUMONT CITY  FAIR      61  54  76 CALM      30.07S
ORANGE         MOSUNNY   62  57  85 CALM      30.09S
JASPER         PTCLDY    57  54  88 CALM      30.07F
$$

ACROSS CENTRAL LOUISIANA

CITY           SKY/WX    TMP DP  RH WIND       PRES   REMARKS
LEESVILLE      PTCLDY    64  51  62 NE3       30.07F
FULLERTON      FAIR      61  52  72 CALM      30.06F
ALEXANDRIA INT PTCLDY    57  50  77 CALM      30.07S
ESLER FIELD    PTCLDY    54  53  97 CALM      30.08F
DERIDDER       FAIR      59  53  79 CALM      30.09F
OAKDALE        MOSUNNY   54  50  87 CALM      30.08S
OPELOUSAS      FAIR      56  55  96 CALM      30.07S
$$

ACROSS SOUTHWEST AND SOUTH CENTRAL LOUISIANA

CITY           SKY/WX    TMP DP  RH WIND       PRES   REMARKS
DEQUINCY       FAIR      57  52  85 CALM      30.08S
SULPHUR        MOSUNNY   69  52  54 N3        30.07F
LAKE CHARLES   PTCLDY    61  52  72 NE7       30.06F
CHENNAULT INT  PTCLDY    65  52  62 NE6       30.07S
JENNINGS       FAIR      61  54  77 CALM      30.07S
LAFAYETTE      PTCLDY    63  57  81 NE3       30.06F
NEW IBERIA     PTCLDY    66  56  70 NE7       30.05F
ABBEVILLE      FAIR      58  52  79 CALM      30.06F
PATTERSON      PTCLDY   N/A N/A N/A MISG        N/A
SALT POINT     NOT AVBL
$$

SELECTED SITES ACROSS THE REGION

CITY           SKY/WX    TMP DP  RH WIND       PRES   REMARKS
HOUSTON BUSH   PTCLDY    65  54  67 NE6       30.06F
HOUSTON HOBBY  MOCLDY    70  54  56 CALM      30.05F
GALVESTON      PTCLDY    72  63  73 N6        30.06S
COLLEGE STAT   PTCLDY    70  48  45 E8        30.08S
CONROE         PTCLDY    58  53  84 CALM      30.08F
HUNTSVILLE     PTCLDY    65  51  60 CALM      30.08S
LUFKIN         PTCLDY    60  52  74 CALM      30.09F
SHREVEPORT     PTCLDY    61  53  75 CALM      30.10F
MONROE         PTCLDY    59  51  75 N5        30.11S
NATCHEZ MS     PTCLDY    55  54  96 E5        30.09F
BATON ROUGE    PTCLDY    63  56  78 NE5       30.06F
N.O. INTL ARPT PTCLDY    72  62  71 NE5       30.06S
SLIDELL        PTCLDY    61  57  87 CALM      30.06S
$$

MARINE REPORTS

STATION/POSITION TIME  SKY/WX   TEMP    WIND        PRES    VSBY
                                AIR SEA DIR/SP/G
                 (UTC)          (F)     (DEG/KT/KT) (MB)    (MI)
BUOY 30 S HIGH I NOT AVBL
SEA RIM ST PARK  0700            71      60/  7/  8 1018.1F
PORT ARTHUR      0624            72 78   40/  1/  3 1018.1
TEXAS POINT      0624            70 76   50/ 10/ 11 1017.0
CALCASIEU PASS   0624            76 77  100/ 11/ 17 1017.7
LK CHARLES BEACH 0624            71 78              1018.5
MARSH ISLAND     NOT AVBL
FRESH WATER LOCK NOT AVBL
AMERADA PASS     0624            67 78   10/  2/  4 1017.6
$$



USA.gov is the U.S. government's official web portal to all federal, state and local government web resources and services.